EA4PS Weather Reports


time (UTC)temp
C
wind
direction
speed
KPH
gust
KPH
rain 1hr
cm
rain 24hr
cm
rain mn
cm
humidity
%
barometer
mb
20190421002411 10 38 0.0 1.6 0.00 0.00 0.00 77 1015.6
20190421000413 10 38 0.0 0.0 0.00 0.00 0.00 77 1015.9
20190420235410 10 38 0.0 1.6 0.00 0.00 0.00 78 1016.0
20190420234411 10 38 0.0 1.6 0.00 0.00 0.00 77 1016.3
20190420233411 10 37 0.0 0.0 0.00 0.00 0.00 76 1016.3
20190420232410 10 37 0.0 1.6 0.00 0.00 0.00 76 1016.4
20190420231410 10 37 0.0 1.6 0.00 0.00 0.00 76 1016.5
20190420230410 10 36 0.0 0.0 0.00 0.00 0.00 76 1016.8
20190420224410 10 36 0.0 4.8 0.00 0.00 0.00 77 1016.8
20190420223410 11 15 0.0 0.0 0.00 0.00 0.00 78 1017.0
20190420222410 11 15 0.0 6.4 0.00 0.00 0.00 77 1017.0
20190420221410 11 15 0.0 6.4 0.00 0.00 0.00 77 1017.0
20190420220410 11 127 0.0 0.0 0.00 0.00 0.00 78 1017.0
20190420213410 11 128 0.0 0.0 0.00 0.00 0.00 77 1016.7
20190420211410 11 130 4.8 4.8 0.00 0.00 0.00 77 1016.5
20190420202410 12 134 0.0 6.4 0.00 0.00 0.00 77 1016.1
20190420200410 13 134 0.0 4.8 0.00 0.00 0.00 74 1015.8
20190420194410 13 143 0.0 4.8 0.00 0.00 0.00 71 1015.5
20190420192411 13 146 0.0 6.4 0.00 0.00 0.00 68 1015.4
20190420191410 14 146 0.0 6.4 0.00 0.00 0.00 67 1015.4
20190420185410 15 119 0.0 12.9 0.00 0.00 0.00 57 1015.2
20190420182410 16 51 0.0 4.8 0.00 0.00 0.00 50 1014.9
20190420175411 16 102 0.0 16.1 0.00 0.00 0.00 48 1014.7
20190420174410 16 342 1.6 16.1 0.00 0.00 0.00 48 1014.6
20190420173410 16 40 0.0 6.4 0.00 0.00 0.00 48 1014.5
20190420172410 16 74 3.2 6.4 0.00 0.00 0.00 48 1014.5
20190420171410 16 51 1.6 6.4 0.00 0.00 0.00 46 1014.7
20190420165410 17 127 0.0 12.9 0.00 0.00 0.00 47 1014.5
20190420164410 17 330 0.0 12.9 0.00 0.00 0.00 46 1014.5
20190420163410 17 139 4.8 12.9 0.00 0.00 0.00 46 1014.6
20190420162410 17 19 1.6 14.5 0.00 0.00 0.00 45 1014.7
20190420155410 17 16 4.8 11.3 0.00 0.00 0.00 45 1014.6
20190420152410 18 262 1.6 17.7 0.00 0.00 0.00 45 1014.5
20190420144412 19 19 8.0 16.1 0.00 0.00 0.00 44 1014.5
20190420143410 19 9 9.7 16.1 0.00 0.00 0.00 43 1014.6
20190420142410 19 9 0.0 17.7 0.00 0.00 0.00 46 1014.6
20190420141412 19 12 4.8 17.7 0.00 0.00 0.00 44 1014.8
20190420140410 18 71 3.2 16.1 0.00 0.00 0.00 44 1014.9
20190420135410 18 67 3.2 16.1 0.00 0.00 0.00 44 1015.0
20190420131410 18 43 6.4 25.7 0.00 0.00 0.00 48 1015.5
20190420125410 17 5 4.8 19.3 0.00 0.00 0.00 50 1015.7
20190420123410 17 36 4.8 17.7 0.00 0.00 0.00 50 1015.9
20190420122410 17 340 0.0 27.4 0.00 0.00 0.00 48 1015.8
20190420114412 16 343 8.0 19.3 0.00 0.00 0.00 52 1016.3
20190420113409 16 360 1.6 14.5 0.00 0.00 0.00 52 1016.4
20190420111412 16 36 0.0 17.7 0.00 0.00 0.00 54 1016.6
20190420110410 15 29 0.0 9.7 0.00 0.00 0.00 55 1016.6
20190420105410 15 329 8.0 27.4 0.00 0.00 0.00 55 1016.7
20190420103410 15 5 3.2 14.5 0.00 0.00 0.00 60 1016.8
20190420102409 14 313 1.6 20.9 0.00 0.00 0.00 61 1016.9
20190420101412 14 301 6.4 20.9 0.00 0.00 0.00 60 1017.0
20190420095409 13 15 1.6 19.3 0.00 0.00 0.00 63 1017.0
20190420093409 13 355 6.4 17.7 0.00 0.00 0.00 64 1016.8
20190420092409 13 316 6.4 16.1 0.00 0.00 0.00 63 1016.8
20190420091412 13 20 4.8 16.1 0.00 0.00 0.00 64 1016.9
20190420085409 12 34 4.8 8.0 0.00 0.00 0.00 64 1017.0
20190420083409 12 40 0.0 4.8 0.00 0.00 0.00 65 1017.1
20190420082410 12 17 0.0 19.3 0.00 0.00 0.00 66 1016.5
20190420075409 12 323 12.9 17.7 0.00 0.00 0.00 66 1016.6
20190420074409 12 327 0.0 12.9 0.00 0.00 0.00 66 1016.8
20190420073409 12 346 0.0 11.3 0.00 0.00 0.00 66 1016.9
20190420070410 12 329 4.8 6.4 0.00 0.00 0.00 68 1016.8
20190420065409 12 20 12.9 12.9 0.00 0.00 0.00 68 1016.9
20190420064409 11 355 4.8 12.9 0.00 0.00 0.00 69 1017.1
20190420062410 11 355 4.8 16.1 0.00 0.00 0.00 69 1017.1
20190420061412 11 355 0.0 16.1 0.00 0.00 0.00 69 1017.2
20190420060409 11 350 1.6 12.9 0.00 0.00 0.00 69 1016.9
20190420055409 11 334 4.8 16.1 0.00 0.00 0.00 69 1016.5
20190420053409 11 327 0.0 14.5 0.00 0.00 0.00 69 1016.9
20190420052409 11 341 0.0 16.1 0.00 0.00 0.00 69 1017.0
20190420051412 11 9 4.8 14.5 0.00 0.00 0.00 69 1017.1
20190420050409 11 22 1.6 14.5 0.00 0.00 0.00 68 1017.1
20190420042409 11 338 0.0 17.7 0.00 0.00 0.00 69 1016.7
20190420041409 11 323 0.0 17.7 0.00 0.00 0.00 70 1016.5
20190420040409 11 5 0.0 16.1 0.00 0.00 0.00 70 1016.6
20190420033409 11 13 0.0 8.0 0.00 0.00 0.00 72 1017.2
20190420032409 11 5 0.0 16.1 0.00 0.00 0.00 73 1017.2
20190420015409 10 355 4.8 14.5 0.00 0.00 0.00 80 1017.5
20190420014409 10 20 0.0 12.9 0.00 0.00 0.00 81 1017.9
20190420013409 10 12 0.0 12.9 0.00 0.00 0.00 82 1018.0
20190420011409 10 12 0.0 9.7 0.00 0.00 0.00 84 1018.6
20190420005409 9 17 0.0 9.7 0.00 0.00 0.00 85 1018.8
20190420004409 9 355 0.0 6.4 0.00 0.00 0.00 87 1018.9